sat.trackr.live / text

‹ back to catalog

STARLINK-36556

NORAD 67642 · 2026-020AB

PAYLOAD ACTIVE UNKNOWN

§ Identity

Operator
Country
US
Launch date
2026-01-30
Launch site
AFETR
Launch vehicle
Mass (kg)
RCS (m²)

Purposes: comms

External: N2YO · Heavens-Above · Gunter

§ Orbital elements

Epoch: 2026-09-19T21:52:54.518304Z

Period
94.27 min
Inclination
43.0002°
Eccentricity
0.0001213
Mean motion
15.27593544 rev/d
Perigee alt
482.2 km
Apogee alt
483.8 km
Semi-major
6,861.1 km
B*
6.6142e-4
RAAN
123.2334°
Arg perigee
265.3147°
Mean anomaly
94.7566°
Rev number
3,581

§ Raw data

STARLINK-365561 67642U 26020AB  26262.91174211  .00017991  00000+0  66142-3 0  99972 67642  43.0002 123.2334 0001213 265.3147  94.7566 15.27593544 35818

JSON: /api/v1/satellites/67642 · /tle

For live sub-satellite position, see the globe view (requires WebGL).

§ Visibility from observer

Set your observer location to see the next 7 days of passes ≥ 10°. The values pass through the URL so the page stays shareable.

No JS? Fill the form by hand. The geolocation button needs JavaScript.